Accueil
METAR-TAF:

METAR-TAF

Aéroports :

Alma, Michigan, États-Unis

latitude: 43-19-19N, longitude: 084-41-16W, altitude: 229 m

Observation

Le bulletin a été fait il y a 22 minutes, à 07:35 UTC
Vent 3 kt de est
Température 13°C
Humidité 100%
Pression 1011 hPa
Visibilité: 16.1 km
Nuages fragmentés à une hauteur de 2800 ft
Ciel couvert à une hauteur de 3600 ft
pluie

METAR: KAMN 210735Z AUTO 08003KT 10SM RA BKN028 OVC036 13/13 A2985 RMK AO2 T01330132

Heure: 03:57 (07:57 UTC)


TAF: absent

Observations et prévisions météorologiques de plus de 4000 aéroports (messages METAR et TAF).

Les stations disponibles sont représentées par des disques jaunes et rouges sur la carte.

Passer la souris dessus pour voir le nom de la station.

Cliquer dessus pour voir les observations et prévisions météorologiques.

Pour changer de carte: cliquez sur les boutons verts avec une croix noire pour zoomer, sur le bouton vert avec un tiret pour effectuer un zoom arrière, ou sur les flèches vertes pour les cartes adjacentes.


METAR-TAF: